カタログに戻る

THOR ABLESTAR DEB

運用中LEO
NORAD 656·DEBRIS·🇺🇸 United States

打ち上げ Jun 29, 1961 から Cape Canaveral Space Force Station

Loading…

次のパス (今後24時間)

TLE

最新Source: Space-Track

元期: Sep 14, 2026, 03:31 UTC

1 00656U 61015HH  26257.14700107 -.00001182  00000-0 -22769-2 0  9994
2 00656  66.2917  21.8807 0651894  78.8817 288.4742 12.73084388978326

AllMySatでTHOR ABLESTAR DEBをリアルタイム追跡

Download on the App Store